SCP
3 2 2 1 1 1 1 0 0 0 0 0 0 0 0 0 0 0 0 0 0 0 0 0 0 0 0 0 0 0 0 0 0 0 0 0 0 0
3 3 2 2 2 1 1 0 0 0 0 0 0 0 0 0 0 0 0 0 0 0 0 0 0 0 0 0 0 0 0 0 0 0 0 0 0 0
3 3 3 2 2 1 1 1 0 0 0 0 0 0 0 0 0 0 0 0 0 0 0 0 0 0 0 0 0 0 0 0 0 0 0 0 0 0
2 3 3 2 2 1 1 1 0 0 0 0 0 0 0 0 0 0 0 0 0 0 0 0 0 0 0 0 0 0 0 0 0 0 0 0 0 0
2 2 2 1 1 1 1 1 0 0 0 0 0 0 0 0 0 0 0 0 0 0 0 0 0 0 0 0 0 0 0 0 0 0 0 0 0 0
2 2 2 1 1 1 1 1 0 0 0 0 0 0 0 0 0 0 0 0 0 0 0 0 0 0 0 0 0 0 0 0 0 0 0 0 0 0
2 2 1 1 1 1 1 0 0 0 0 0 0 0 0 0 0 0 0 0 0 0 0 0 0 0 0 0 0 0 0 0 0 0 0 0 0 0
2 2 1 1 0 0 0 0 0 0 0 0 0 0 0 0 0 0 0 0 0 0 0 0 0 0 0 0 0 0 0 0 0 0 0 0 0 0
1 1 1 0 0 0 0 0 0 0 0 0 0 0 0 0 0 0 0 0 0 0 0 0 0 0 0 0 0 0 0 0 0 0 0 0 0 0
0 0 0 0 0 0 0 0 0 0 0 0 0 0 0 0 0 0 0 0 0 0 0 0 0 0 0 0 0 0 0 0 0 0 0 0 0 0
0 0 0 0 0 0 0 0 0 0 0 0 0 0 0 0 0 0 0 0 0 0 0 0 0 0 0 0 0 0 0 0 0 0 0 0 0 0
0 0 0 0 0 0 0 0 0 0 0 0 0 0 0 0 0 0 0 0 0 0 0 0 0 0 0 0 0 0 0 0 0 0 0 0 0 0
0 0 0 0 0 0 0 0 0 0 0 0 0 0 0 0 0 0 0 0 0 0 0 0 0 0 0 0 0 0 0 0 0 0 0 0 0 0
0 0 0 0 0 0 0 0 0 0 0 0 0 0 0 0 0 0 0 0 0 0 0 0 0 0 0 0 0 0 0 0 0 0 0 0 0 0
0 0 0 0 0 0 0 0 0 0 0 0 0 0 0 0 0 0 0 0 0 0 0 0 0 0 0 0 0 0 0 0 0 0 0 0 0 0
0 0 0 0 0 0 0 0 0 0 0 0 0 0 0 0 0 0 0 0 0 0 0 0 0 0 0 0 0 0 0 0 0 0 0 0 0 0
0 0 0 0 0 0 0 0 0 0 0 0 0 0 0 0 0 0 0 0 0 0 0 0 0 0 0 0 0 0 0 0 0 0 0 0 0 0
0 0 0 0 0 0 0 0 0 0 0 0 0 0 0 0 0 0 0 0 0 0 0 0 0 0 0 0 0 0 0 0 0 0 0 0 0 0
0 0 0 0 0 0 0 0 0 0 0 0 0 0 0 0 0 0 0 0 0 0 0 0 0 0 0 0 0 0 0 0 0 0 0 0 0 0
0 0 0 0 0 0 0 0 0 0 0 0 0 0 0 0 0 0 0 0 0 0 0 0 0 0 0 0 0 0 0 0 0 0 0 0 0 0
0 0 0 0 0 0 0 0 0 0 0 0 0 0 0 0 0 0 0 0 0 0 0 0 0 0 0 0 0 0 0 0 0 0 0 0 0 0
0 0 0 0 0 0 0 0 0 0 0 0 0 0 0 0 0 0 0 0 0 0 0 0 0 0 0 0 0 0 0 0 0 0 0 0 0 0
0 0 0 0 0 0 0 0 0 0 0 0 0 0 0 0 0 0 0 0 0 0 0 0 0 0 0 0 0 0 0 0 0 0 0 0 0 0
Wind_Speed
5 5 3 2 3 2 2 3 4 3 3 2 2 2 2 3 2 2 2 4 4 5 6 6 6 7 7 7 8 8 8 9 8 6 7 6 5 3
4 5 4 3 3 3 2 2 2 3 2 1 2 2 2 3 3 2 2 3 3 4 5 5 5 6 7 6 6 7 7 8 8 7 8 7 6 5
5 6 5 4 3 3 3 2 2 2 2 1 1 2 2 2 2 2 2 1 1 3 4 4 4 5 5 5 5 6 6 7 8 7 8 8 8 7
7 6 6 5 5 4 3 3 2 2 3 3 1 1 2 2 2 1 1 1 1 2 3 4 4 4 5 5 5 5 6 7 8 8 8 8 8 8
7 7 7 7 5 4 4 3 2 2 2 3 2 1 1 1 1 1 1 1 1 2 2 3 3 3 4 5 6 6 6 6 7 8 9 9 9 8
6 6 6 7 6 6 5 4 4 3 3 3 2 2 2 1 1 1 1 0 0 1 1 2 2 2 3 4 5 6 6 6 6 7 8 9 9 9
6 5 5 7 7 5 4 5 5 3 3 3 3 2 2 2 3 2 2 1 0 0 1 0 1 1 1 2 4 4 5 5 5 6 7 8 8 8
7 6 6 7 8 8 7 6 5 4 4 3 3 3 3 3 3 2 2 2 2 1 1 1 1 1 0 1 2 3 3 3 4 5 6 6 7 7
7 6 5 6 7 6 7 6 4 4 4 4 3 3 3 3 4 3 3 2 2 2 2 1 1 1 1 1 3 2 2 3 3 4 5 5 6 6
6 6 7 7 6 7 6 5 4 3 3 2 3 2 2 2 3 4 4 2 1 0 2 1 1 1 1 0 3 4 3 3 3 3 4 4 4 3
5 5 6 7 10 11 8 6 5 3 4 5 5 4 4 4 4 4 3 3 1 1 1 2 1 1 0 1 2 4 5 4 3 3 3 3 2 2
4 4 6 8 11 11 7 7 6 4 4 4 3 3 2 3 4 3 4 3 2 2 2 2 1 1 0 1 1 1 2 4 4 3 3 3 3 1
4 4 4 10 11 10 8 6 7 6 5 4 3 2 2 2 2 2 2 2 2 2 3 3 2 2 2 1 1 1 1 1 1 1 3 4 4 3
4 4 5 10 10 9 6 7 9 7 4 3 2 2 2 2 2 2 3 3 2 1 2 3 2 2 2 1 1 1 1 1 1 1 1 3 4 5
4 7 9 11 9 6 8 9 7 4 4 3 3 2 2 3 3 2 3 3 3 2 2 2 2 2 2 2 2 1 1 2 2 2 2 2 2 2
4 7 9 9 6 6 6 5 3 4 4 3 3 3 3 3 2 2 2 2 1 0 1 1 2 2 2 2 2 2 2 2 2 2 2 2 2 3
5 4 3 3 3 3 3 3 3 3 3 3 3 3 3 3 3 2 2 2 2 2 1 1 1 1 2 2 2 3 3 2 2 2 2 2 3 4
5 4 4 5 5 5 5 4 4 4 4 4 4 4 4 4 3 3 3 3 3 2 2 2 2 1 1 3 7 4 3 3 2 3 2 3 4 4
4 4 5 5 5 5 5 5 5 4 4 4 4 4 4 4 4 3 3 3 3 3 3 3 3 3 2 3 3 7 4 3 2 3 3 4 4 3
3 4 4 5 5 5 5 4 4 4 4 4 4 4 5 4 4 4 4 4 4 3 3 3 4 5 5 3 2 2 7 4 3 3 3 3 4 6
3 4 4 4 4 4 4 4 5 4 4 5 5 5 5 5 5 5 5 7 6 4 5 5 5 7 3 1 2 3 3 8 7 4 3 2 2 2
3 3 3 4 4 4 5 5 5 5 5 5 5 5 5 5 5 6 5 5 5 5 5 3 3 4 4 5 5 4 3 3 7 11 10 7 4 4
2 2 3 3 3 3 4 5 5 5 5 5 5 5 5 5 5 5 5 5 4 5 4 3 3 4 4 5 5 4 5 4 3 4 6 11 16 16
Wind_Direction
173 168 167 166 153 154 146 157 168 189 211 176 139 125 116 105 91 70 67 73 63 63 69 71 63 53 44 37 31 26 23 21 24 36 49 57 72 87
167 166 168 162 154 150 155 162 161 167 185 155 134 135 121 115 100 81 82 86 77 85 80 77 68 58 48 38 32 29 27 28 34 54 59 60 65 76
168 167 166 155 158 160 154 158 165 155 175 156 92 106 109 113 94 72 66 61 86 97 90 81 74 63 50 39 34 34 35 37 41 53 61 62 64 70
175 166 167 160 164 162 163 166 165 161 160 172 147 118 105 124 112 92 55 53 82 101 100 88 79 67 55 45 40 48 52 50 48 57 60 62 62 68
173 171 166 163 168 162 155 155 156 150 143 147 149 126 113 116 110 74 50 33 74 115 114 91 79 70 67 60 53 56 62 62 59 63 64 63 63 67
161 161 158 163 166 161 159 159 154 152 148 144 151 151 143 132 149 182 204 160 28 60 98 94 89 77 75 71 62 58 66 71 72 72 70 65 64 66
146 144 141 140 140 145 152 156 155 159 156 157 164 162 171 173 196 182 181 158 245 168 108 120 124 78 56 74 70 66 70 78 80 81 78 75 72 70
148 141 139 137 138 138 139 140 147 158 166 167 178 188 197 188 166 160 148 150 229 217 144 225 149 168 194 131 114 92 81 91 95 92 88 85 81 78
151 151 149 148 143 136 136 127 117 122 145 159 173 187 176 171 156 161 175 182 205 182 134 207 182 206 218 158 156 153 136 116 114 112 105 97 89 84
152 156 153 148 153 148 141 133 123 106 109 114 138 139 131 137 156 166 166 135 79 96 140 176 192 205 175 162 194 188 176 154 143 145 135 121 105 94
143 151 152 150 159 153 141 138 132 125 109 113 112 111 114 130 138 124 135 143 179 213 174 157 169 148 148 216 221 206 196 187 177 169 167 155 142 108
137 142 153 159 162 159 152 152 157 163 147 136 121 106 102 113 127 142 159 162 163 198 186 152 146 121 168 274 215 212 209 209 200 199 203 201 189 126
151 155 163 168 168 168 164 159 167 155 147 145 140 128 106 96 83 85 108 150 166 190 170 147 143 144 154 212 264 220 180 180 182 217 227 226 218 188
160 160 162 167 168 168 166 161 161 150 136 139 143 147 142 132 114 96 85 81 90 141 147 136 149 162 148 165 237 249 238 205 175 186 213 239 239 236
154 160 160 165 165 166 172 171 162 147 147 157 168 175 163 149 132 111 92 84 67 58 85 125 153 163 165 181 198 190 219 244 200 187 197 207 215 224
144 154 157 162 159 163 170 172 160 164 164 170 170 163 148 143 152 154 154 150 119 74 66 96 136 159 178 203 194 210 205 221 211 202 203 226 230 220
143 129 133 146 163 164 163 165 168 174 181 165 163 162 163 164 173 167 162 173 183 180 179 165 157 164 200 196 216 222 213 218 213 198 202 241 245 234
158 158 171 179 185 184 182 182 184 188 184 175 174 174 175 179 180 174 174 191 208 208 195 177 159 134 306 261 219 218 212 215 208 197 196 229 258 243
180 177 184 188 189 187 187 186 189 188 180 178 182 184 182 182 182 187 193 204 214 212 203 179 174 176 201 259 252 204 195 196 190 204 213 219 245 258
188 187 190 189 187 186 187 188 187 181 180 185 188 189 189 189 193 198 201 207 212 212 210 198 197 201 206 213 242 236 207 199 196 214 226 231 253 268
196 191 189 187 188 186 185 184 184 186 186 186 192 194 193 195 202 204 206 216 214 211 218 219 219 206 187 175 254 259 232 218 212 203 199 210 246 255
200 198 194 192 189 187 184 184 185 187 189 194 195 195 196 199 206 207 206 209 213 215 221 216 185 176 181 211 237 246 250 239 236 239 235 215 195 216
204 201 196 191 192 188 187 190 191 194 194 196 198 199 198 202 205 206 208 209 210 212 213 203 187 190 205 216 233 245 248 243 233 235 245 245 246 251